TimeCST,TemperatureF,Dew PointF,Humidity,Sea Level PressureIn,VisibilityMPH,Wind Direction,Wind SpeedMPH,Gust SpeedMPH,PrecipitationIn,Events,Conditions,WindDirDegrees,DateUTC
12:35 AM,53.6,39.2,58,30.08,9.0,SSE,3.5,-,N/A,,Overcast,150,2013-11-15 06:35:00
12:55 AM,51.8,39.2,62,30.07,10.0,SSE,5.8,-,N/A,,Overcast,150,2013-11-15 06:55:00
1:15 AM,51.8,39.2,62,30.07,10.0,SSE,4.6,-,N/A,,Overcast,150,2013-11-15 07:15:00
1:35 AM,51.8,39.2,62,30.06,10.0,SSE,3.5,-,N/A,,Overcast,150,2013-11-15 07:35:00
1:55 AM,51.8,39.2,62,30.05,10.0,SSE,5.8,-,N/A,,Overcast,150,2013-11-15 07:55:00
2:15 AM,53.6,39.2,58,30.04,10.0,SSE,4.6,-,N/A,,Overcast,150,2013-11-15 08:15:00
2:35 AM,53.6,39.2,58,30.04,10.0,SSE,5.8,-,N/A,,Overcast,150,2013-11-15 08:35:00
2:55 AM,53.6,37.4,54,30.04,10.0,SE,5.8,-,N/A,,Overcast,140,2013-11-15 08:55:00
3:15 AM,53.6,37.4,54,30.03,10.0,SE,4.6,-,N/A,,Overcast,140,2013-11-15 09:15:00
3:35 AM,53.6,37.4,54,30.03,9.0,SE,3.5,-,N/A,,Overcast,140,2013-11-15 09:35:00
3:55 AM,53.6,37.4,54,30.03,10.0,SE,3.5,-,N/A,,Overcast,140,2013-11-15 09:55:00
4:15 AM,53.6,39.2,58,30.03,10.0,Calm,Calm,-,N/A,,Overcast,0,2013-11-15 10:15:00
4:35 AM,53.6,39.2,58,30.03,10.0,Calm,Calm,-,N/A,,Overcast,0,2013-11-15 10:35:00
4:55 AM,53.6,39.2,58,30.03,10.0,Calm,Calm,-,N/A,,Overcast,0,2013-11-15 10:55:00
5:15 AM,51.8,39.2,62,30.03,10.0,SSE,3.5,-,N/A,,Overcast,150,2013-11-15 11:15:00
5:35 AM,53.6,39.2,58,30.02,10.0,Calm,Calm,-,N/A,,Overcast,0,2013-11-15 11:35:00
5:55 AM,53.6,39.2,58,30.03,10.0,Calm,Calm,-,N/A,,Overcast,0,2013-11-15 11:55:00
6:15 AM,53.6,41.0,62,30.03,10.0,SSE,3.5,-,N/A,,Overcast,160,2013-11-15 12:15:00
6:35 AM,53.6,42.8,67,30.03,10.0,SSE,3.5,-,N/A,,Overcast,150,2013-11-15 12:35:00
6:55 AM,53.6,44.6,72,30.03,10.0,SE,4.6,-,N/A,,Mostly Cloudy,140,2013-11-15 12:55:00
7:15 AM,53.6,44.6,72,30.04,9.0,SE,3.5,-,N/A,,Mostly Cloudy,140,2013-11-15 13:15:00
7:35 AM,53.6,44.6,72,30.04,9.0,Calm,Calm,-,N/A,,Overcast,0,2013-11-15 13:35:00
7:55 AM,51.8,44.6,76,30.05,9.0,Calm,Calm,-,N/A,,Mostly Cloudy,0,2013-11-15 13:55:00
8:15 AM,53.6,44.6,72,30.05,10.0,Calm,Calm,-,N/A,,Overcast,0,2013-11-15 14:15:00
8:35 AM,53.6,46.4,77,30.06,8.0,Calm,Calm,-,N/A,,Overcast,0,2013-11-15 14:35:00
8:55 AM,53.6,48.2,82,30.05,10.0,SE,3.5,-,N/A,,Overcast,140,2013-11-15 14:55:00
9:15 AM,55.4,50.0,82,30.06,10.0,Calm,Calm,-,N/A,,Overcast,0,2013-11-15 15:15:00
9:35 AM,55.4,50.0,82,30.06,9.0,SSE,4.6,-,N/A,,Overcast,150,2013-11-15 15:35:00
9:55 AM,55.4,51.8,88,30.05,10.0,SE,4.6,-,N/A,,Overcast,140,2013-11-15 15:55:00
10:15 AM,57.2,51.8,82,30.03,9.0,South,3.5,-,N/A,,Overcast,170,2013-11-15 16:15:00
10:35 AM,59.0,53.6,82,30.03,9.0,South,6.9,-,N/A,,Overcast,170,2013-11-15 16:35:00
10:55 AM,60.8,53.6,77,30.02,9.0,South,4.6,-,N/A,,Overcast,180,2013-11-15 16:55:00
11:15 AM,60.8,53.6,77,30.01,9.0,SSE,5.8,-,N/A,,Mostly Cloudy,160,2013-11-15 17:15:00
11:35 AM,62.6,55.4,77,30.00,9.0,SSE,6.9,-,N/A,,Overcast,160,2013-11-15 17:35:00
11:55 AM,62.6,55.4,77,29.99,9.0,SE,5.8,-,N/A,,Overcast,140,2013-11-15 17:55:00
12:15 PM,64.4,55.4,73,29.98,9.0,SSE,4.6,-,N/A,,Overcast,150,2013-11-15 18:15:00
12:35 PM,64.4,57.2,77,29.97,10.0,South,5.8,-,N/A,,Overcast,190,2013-11-15 18:35:00
12:55 PM,64.4,57.2,77,29.96,9.0,SSW,3.5,-,N/A,,Overcast,200,2013-11-15 18:55:00
1:15 PM,66.2,57.2,73,29.95,10.0,SSW,5.8,-,N/A,,Overcast,200,2013-11-15 19:15:00
1:35 PM,66.2,57.2,73,29.94,9.0,South,5.8,-,N/A,,Mostly Cloudy,190,2013-11-15 19:35:00
1:55 PM,66.2,57.2,73,29.94,9.0,South,3.5,-,N/A,,Mostly Cloudy,180,2013-11-15 19:55:00
2:15 PM,68.0,57.2,68,29.92,9.0,Calm,Calm,-,N/A,,Scattered Clouds,0,2013-11-15 20:15:00
2:35 PM,69.8,57.2,64,29.92,9.0,South,5.8,-,N/A,,Partly Cloudy,180,2013-11-15 20:35:00
2:55 PM,68.0,57.2,68,29.92,10.0,Calm,Calm,-,N/A,,Scattered Clouds,0,2013-11-15 20:55:00
3:15 PM,69.8,57.2,64,29.91,9.0,SE,4.6,-,N/A,,Mostly Cloudy,140,2013-11-15 21:15:00
3:35 PM,69.8,57.2,64,29.91,10.0,South,5.8,-,N/A,,Partly Cloudy,170,2013-11-15 21:35:00
3:55 PM,69.8,57.2,64,29.91,10.0,Calm,Calm,-,N/A,,Scattered Clouds,0,2013-11-15 21:55:00
4:15 PM,69.8,57.2,64,29.90,9.0,Calm,Calm,-,N/A,,Partly Cloudy,0,2013-11-15 22:15:00
4:35 PM,68.0,57.2,68,29.90,9.0,SSE,4.6,-,N/A,,Clear,160,2013-11-15 22:35:00
4:55 PM,68.0,57.2,68,29.89,10.0,SE,3.5,-,N/A,,Clear,140,2013-11-15 22:55:00
5:15 PM,66.2,57.2,73,29.91,8.0,Calm,Calm,-,N/A,,Clear,0,2013-11-15 23:15:00
5:35 PM,64.4,57.2,77,29.90,7.0,Calm,Calm,-,N/A,,Scattered Clouds,0,2013-11-15 23:35:00
5:55 PM,62.6,57.2,82,29.91,9.0,Calm,Calm,-,N/A,,Scattered Clouds,0,2013-11-15 23:55:00
6:15 PM,60.8,57.2,88,29.91,9.0,Calm,Calm,-,N/A,,Clear,0,2013-11-16 00:15:00
6:35 PM,60.8,57.2,88,29.91,9.0,Calm,Calm,-,N/A,,Clear,0,2013-11-16 00:35:00
6:55 PM,57.2,55.4,94,29.92,8.0,Calm,Calm,-,N/A,,Clear,0,2013-11-16 00:55:00
7:15 PM,57.2,55.4,94,29.92,7.0,Calm,Calm,-,N/A,,Clear,0,2013-11-16 01:15:00
7:35 PM,55.4,55.4,100,29.91,6.0,Calm,Calm,-,N/A,,Clear,0,2013-11-16 01:35:00
7:55 PM,57.2,55.4,94,29.91,8.0,Calm,Calm,-,N/A,,Clear,0,2013-11-16 01:55:00
8:15 PM,55.4,55.4,100,29.92,7.0,Calm,Calm,-,N/A,,Clear,0,2013-11-16 02:15:00
8:35 PM,57.2,57.2,100,29.91,8.0,ESE,3.5,-,N/A,,Clear,120,2013-11-16 02:35:00
8:55 PM,57.2,57.2,100,29.92,8.0,SE,3.5,-,N/A,,Clear,130,2013-11-16 02:55:00
9:15 PM,60.8,59.0,94,29.92,10.0,SE,3.5,-,N/A,,Clear,130,2013-11-16 03:15:00
9:35 PM,59.0,59.0,100,29.92,8.0,Calm,Calm,-,N/A,,Clear,0,2013-11-16 03:35:00
9:55 PM,57.2,57.2,100,29.93,7.0,Calm,Calm,-,N/A,,Clear,0,2013-11-16 03:55:00
10:15 PM,55.4,55.4,100,29.93,5.0,Calm,Calm,-,N/A,,Clear,0,2013-11-16 04:15:00
10:35 PM,57.2,57.2,100,29.93,4.0,Calm,Calm,-,N/A,,Clear,0,2013-11-16 04:35:00
10:55 PM,57.2,57.2,100,29.93,6.0,SE,3.5,-,N/A,,Clear,140,2013-11-16 04:55:00
11:15 PM,59.0,59.0,100,29.93,8.0,SSE,4.6,-,N/A,,Clear,150,2013-11-16 05:15:00
11:35 PM,60.8,60.8,100,29.93,10.0,SSE,5.8,-,N/A,,Clear,150,2013-11-16 05:35:00
11:55 PM,62.6,62.6,100,29.93,9.0,SSE,5.8,-,N/A,,Clear,150,2013-11-16 05:55:00